Weather Roundup
Issued by NWS Springfield, MO

Home | Current Version | Previous Version | Text Only | Print | Product List | Glossary On
Versions: 1 2 3 4 5 6 7 8 9 10 11 12 13 14 15 16 17 18 19 20 21 22 23 24 25 26 27 28 29 30 31 32 33 34 35 36 37 38 39 40 41 42 43 44 45 46 47 48 49 50
000
NZUS99 KSGF 041207
HRRSGF

HOURLY WEATHER
NATIONAL WEATHER SERVICE SPRINGFIELD MO
700 AM CDT MON MAY 04 2015

......SGF CWA......

CITY           SKY/WX    TMP DP  RH WIND       PRES   REMARKS
SPRINGFIELD    MOCLDY    63  55  75 S7        30.08R
6HR MIN TEMP:  61; 6HR MAX TEMP:  65; 6HR PCP: TRACE;

JOPLIN         CLOUDY    67  54  63 S12       30.05R
6HR MIN TEMP:  65; 6HR MAX TEMP:  68;

WEST PLAINS    MOCLDY    64  55  72 S5        30.12R
6HR MIN TEMP:  58; 6HR MAX TEMP:  66;

ROLLA          CLOUDY    62  56  80 S9        30.06R
6HR MIN TEMP:  62; 6HR MAX TEMP:  67;

OSAGE BEACH    MOCLDY    61  54  77 S6        30.05R
BRANSON        MOCLDY    63  55  77 S6        30.10R

......SURROUNDING SGF CWA......

CITY           SKY/WX    TMP DP  RH WIND       PRES   REMARKS
CHANUTE        MOCLDY    62  56  80 S9        30.01R
PARSONS        MOCLDY    62  57  83 S3        30.04R
COFFEYVILLE    MOCLDY    62  56  80 S7        30.03R
EMPORIA        MOCLDY    61  55  81 S12       29.97R
GROVE OK       CLOUDY    61  57  88 CALM      30.07R
ROGERS AR      MOCLDY    62  55  77 SE5       30.10R
SILOAM SPRINGS MOCLDY    63  52  67 S3        30.10R
HARRISON AR    MOCLDY    59  56  89 S3        30.11R
NEAR YELLVILLE CLOUDY    57  55  94 CALM      30.09R

......KANSAS AND MISSOURI......

CITY           SKY/WX    TMP DP  RH WIND       PRES   REMARKS
KANSAS CTY INT CLOUDY    61  56  83 S9        29.97S
DOWNTOWN KC    CLOUDY    66  56  70 CALM      29.98R
COLUMBIA       CLOUDY    63  57  81 S6        30.04R
SEDALIA        LGT RAIN  63  58  83 S6        30.04R
ST JOSEPH      CLOUDY    66  56  70 SW7       29.95R
ST LOUIS       LGT RAIN  69  57  65 SW7       30.08R
SPIRIT OF STL  LGT RAIN  65  59  81 CALM      30.06R
KIRKSVILLE     CLOUDY    64  59  83 S9        29.99R
WICHITA        MOCLDY    58  54  86 S6        29.98R
TOPEKA         CLOUDY    65  55  70 S10       29.98R
OLATHE         CLOUDY    62  56  80 CALM      30.01R

......TENNESSEE......

CITY           SKY/WX    TMP DP  RH WIND       PRES   REMARKS
MEMPHIS        PTCLDY    64  56  75 S7        30.17R
NASHVILLE      MOSUNNY   57  52  83 SE3       30.21R

......ARKANSAS.......

CITY           SKY/WX    TMP DP  RH WIND       PRES   REMARKS
FAYETTEVILLE   MOCLDY    56  56 100 CALM      30.09R
FT SMITH       PTCLDY    61  56  83 NE5       30.08R
LITTLE ROCK    PTCLDY    61  56  83 CALM      30.13R

......OKLAHOMA.......

CITY           SKY/WX    TMP DP  RH WIND       PRES   REMARKS
TULSA          CLOUDY    65  56  72 S8        30.02R
PONCA CITY     MOCLDY    62  57  83 SE6       30.00R
MCALESTER      MOCLDY    66  60  81 S6        30.06R
OKLAHOMA CITY  MOCLDY    61  56  83 S8        30.00R

......IOWA............

CITY           SKY/WX    TMP DP  RH WIND       PRES   REMARKS
DES MOINES     CLOUDY    62  55  77 N12       29.98R
QUAD CITIES    CLOUDY    61  57  87 S8        29.99F

......ILLINOIS........

CITY           SKY/WX    TMP DP  RH WIND       PRES   REMARKS
QUINCY         CLOUDY    65  56  72 SE5       30.03R
CHICAGO        CLOUDY    59  55  87 S3        29.98R




USA.gov is the U.S. government's official web portal to all federal, state and local government web resources and services.